Weather History for Wolf Point, MT

Change the Weather History Date:

Tuesday, October 8, 2013

  Actual Average Record
Temperature  
Mean Temperature 50 °F -  
Max Temperature 67 °F 62 °F 79 °F (1998)
Min Temperature 32 °F 32 °F 19 °F (2000)
Degree Days  
Heating Degree Days 15    
Cooling Degree Days 0    
Growing Degree Days 4 (Base 50)    
Moisture  
Dew Point 28 °F    
Average Humidity 42    
Maximum Humidity 70    
Minimum Humidity 21    
Precipitation  
Precipitation 0.00 in 0.03 in 0.02 in (2003)
Month to date precipitation 0.00 0.21  
Year to date precipitation 12.79 10.89  
Sea Level Pressure  
Sea Level Pressure 29.75 in    
Wind  
Wind Speed 7 mph (WSW)    
Max Wind Speed 15 mph    
Max Gust Speed 24 mph    
Visibility 10 miles    
Events      
T = Trace of Precipitation, MM = Missing Value Source: NWS Daily Summary

Daily Weather History Graph

Daily Weather History Graph

Search for Another Location

Airport:

Trip Planner

Search our weather history database for the weather conditions in past years. The results will help you decide how hot, cold, wet, or windy it might be!

Date:

Astronomy

Oct. 08, 2013 Rise Set
Actual Time 7:11 AM MDT 6:26 PM MDT
Civil Twilight 6:40 AM MDT 6:57 PM MDT
Nautical Twilight 6:04 AM MDT 7:33 PM MDT
Astronomical Twilight 5:28 AM MDT 8:09 PM MDT
Moon 11:26 AM MDT (10/8) 8:47 PM MDT (10/8)
Length of Visible Light 12h 16m
Length of Day
11h 14m
Waxing Crescent, 16% of the Moon is Illuminated
Oct 8
Waxing Crescent
Oct 11
First Quarter
Oct 18
Full
Oct 26
Last Quarter
Nov 3
New

Hourly Weather History & Observations

Time (MDT) Temp. Windchill Dew Point Humidity Pressure Visibility Wind Dir Wind Speed Gust Speed Precip Events Conditions
12:53 AM 44.1 °F 40.8 °F 30.9 °F 60% 29.62 in 10.0 mi South 5.8 mph - N/A   Clear
1:53 AM 46.9 °F - 33.1 °F 59% 29.63 in 10.0 mi SSW 4.6 mph - N/A   Clear
2:53 AM 50.0 °F - 30.0 °F 46% 29.64 in 10.0 mi West 9.2 mph - N/A   Clear
3:53 AM 46.0 °F 42.5 °F 30.0 °F 54% 29.65 in 10.0 mi West 6.9 mph - N/A   Clear
4:53 AM 45.0 °F 43.5 °F 30.0 °F 56% 29.67 in 10.0 mi SSW 3.5 mph - N/A   Clear
5:53 AM 46.0 °F 44.8 °F 32.0 °F 58% 29.69 in 10.0 mi SW 3.5 mph - N/A   Clear
6:53 AM 45.0 °F - 30.9 °F 58% 29.71 in 10.0 mi Calm Calm - N/A   Clear
7:53 AM 41.0 °F 37.1 °F 32.0 °F 70% 29.74 in 10.0 mi SW 5.8 mph - N/A   Clear
8:53 AM 46.9 °F - 33.1 °F 59% 29.76 in 10.0 mi SW 4.6 mph - N/A   Clear
9:53 AM 55.9 °F - 30.9 °F 39% 29.75 in 10.0 mi WSW 5.8 mph - N/A   Clear
10:53 AM 62.1 °F - 28.0 °F 28% 29.75 in 10.0 mi West 15.0 mph - N/A   Clear
11:53 AM 64.0 °F - 28.0 °F 26% 29.75 in 10.0 mi WNW 15.0 mph 24.2 mph N/A   Clear
12:53 PM 63.0 °F - 26.1 °F 25% 29.73 in 10.0 mi West 15.0 mph - N/A   Clear
1:53 PM 66.0 °F - 26.1 °F 22% 29.72 in 10.0 mi West 15.0 mph 21.9 mph N/A   Clear
2:53 PM 66.0 °F - 25.0 °F 21% 29.72 in 10.0 mi WNW 12.7 mph 24.2 mph N/A   Clear
3:53 PM 66.0 °F - 25.0 °F 21% 29.73 in 10.0 mi West 12.7 mph - N/A   Clear
4:53 PM 63.0 °F - 25.0 °F 24% 29.75 in 10.0 mi West 12.7 mph 19.6 mph N/A   Clear
5:53 PM 61.0 °F - 26.1 °F 26% 29.78 in 10.0 mi West 6.9 mph - N/A   Clear
6:53 PM 57.9 °F - 26.1 °F 30% 29.81 in 10.0 mi WNW 6.9 mph - N/A   Partly Cloudy
7:53 PM 54.0 °F - 27.0 °F 35% 29.85 in 10.0 mi West 3.5 mph - N/A   Scattered Clouds
8:53 PM 52.0 °F - 27.0 °F 38% 29.87 in 10.0 mi Calm Calm - N/A   Partly Cloudy
9:53 PM 46.9 °F - 28.0 °F 48% 29.88 in 10.0 mi Calm Calm - N/A   Clear
10:53 PM 41.0 °F - 26.1 °F 55% 29.91 in 10.0 mi Calm Calm - N/A   Clear
11:53 PM 37.0 °F - 25.0 °F 62% 29.93 in 10.0 mi Calm Calm - N/A   Clear